Lid_Strength_Index
0 1 1 1 1 1 1 0 -0 -1 -1 -1 -1 -2 -2 -0 -0 -1 -0 -0 0 0
0 0 1 -0 -0 0 -0 -0 -0 -0 -1 -1 -1 -0 -1 -0 -0 -0 -0 -0 -0 0
0 -0 -0 0 1 1 0 0 1 1 1 1 1 0 -0 0 -0 0 0 -0 -0 -0
2 2 2 2 2 2 2 2 2 2 2 2 1 1 1 1 0 0 -0 -0 -0 0
3 3 4 4 4 3 3 3 3 3 3 3 3 1 2 1 0 0 0 0 0 0
5 5 5 5 5 5 4 3 2 2 2 2 2 2 2 1 1 1 0 0 0 0
4 5 6 6 6 5 5 4 3 3 3 3 3 2 2 2 2 1 1 0 0 0
5 5 5 6 5 4 4 3 3 3 3 2 2 3 4 4 3 2 1 0 0 -0
6 6 6 5 4 4 4 3 3 2 2 2 3 7 7 6 4 3 2 1 1 0
6 6 6 5 5 4 3 3 3 2 3 3 4 7 7 7 4 3 2 2 1 1
6 6 5 4 4 4 3 3 3 3 3 4 4 7 8 7 3 3 2 1 1 2
5 5 5 5 5 5 5 5 5 4 3 4 4 8 9 8 6 5 4 2 2 3
5 5 5 5 5 5 5 5 6 5 4 6 5 9 10 9 9 7 6 4 3 5
5 5 5 6 6 6 6 7 6 6 6 6 7 7 10 10 9 7 8 5 4 4